This demonstration page uses our WeatherBlox Daily Observations layout. Learn more.

40.92945, -100.16068

Hourly Observations for March 29, 2020

Temp ( °F °C ) Dew Point ( °F °C ) Humidity (%) Winds ( mph kmh ) Pressure ( in mb ) Visibility ( mi km ) Precip ( " mm )
12:15 am 00:15 Clear 39 4.1 37 2.5 89 89 WNW 9 15 29.93 1013 10 16.0934 0 0
12:35 am 00:35 Clear 38 3.5 36 2.1 91 91 WNW 6 9 29.94 1014 10 16.0934 0 0
12:55 am 00:55 Clear 38 3.1 35 1.5 89 89 NW 7 11 29.96 1014 10 16.0934 0 0
1:15 am 01:15 Clear 36 2.2 34 1.1 93 93 NNW 6 9 29.98 1015 10 16.0934 0 0
1:35 am 01:35 Clear 37 2.5 34 1.1 91 91 NNW 3 6 29.98 1015 10 16.0934 0 0
1:55 am 01:55 Clear 36 2.2 34 1.1 93 93 NW 5 7 29.99 1015 10 16.0934 0 0
2:15 am 02:15 Clear 35 1.8 33 0.7 93 93 WNW 9 15 29.99 1016 10 16.0934 0 0
2:35 am 02:35 Clear 35 1.7 33 0.7 93 93 WNW 8 13 29.99 1016 10 16.0934 0 0
2:55 am 02:55 Clear 35 1.9 33 0.7 92 92 W 9 15 29.99 1016 10 16.0934 0 0
3:15 am 03:15 Clear 34 1.1 33 0.5 96 96 W 7 11 30 1016 10 16.0934 0 0
3:35 am 03:35 Clear 34 1.2 33 0.5 95 95 WNW 8 13 30 1016 10 16.0934 0 0
3:55 am 03:55 Clear 33 0.8 32 0.2 96 96 WNW 9 15 30.01 1016 10 16.0934 0 0
4:15 am 04:15 Clear 35 1.6 32 0.2 91 91 WNW 12 19 30 1016 10 16.0934 0 0
4:35 am 04:35 Clear 35 1.9 32 0.1 88 88 W 12 19 30.01 1016 10 16.0934 0 0
4:55 am 04:55 Clear 35 1.7 32 0 89 89 WNW 8 13 30.02 1017 10 16.0934 0 0
5:15 am 05:15 Clear 34 1.1 32 0 92 92 WNW 7 11 30.04 1017 10 16.0934 0 0
5:35 am 05:35 Clear 34 1 32 -0.2 92 92 WNW 6 9 30.04 1017 10 16.0934 0 0
5:55 am 05:55 Partly Cloudy 35 1.4 32 0 91 91 WNW 8 13 30.04 1017 10 16.0934 0 0
6:15 am 06:15 Partly Cloudy 33 0.6 32 -0.2 94 94 WNW 7 11 30.06 1018 10 16.0934 0 0
6:35 am 06:35 Clear 33 0.8 32 0 94 94 WNW 8 13 30.06 1018 10 16.0934 0 0
6:55 am 06:55 Clear 33 0.8 32 -0.1 94 94 WNW 9 15 30.07 1018 10 16.0934 0 0
7:15 am 07:15 Clear 33 0.7 32 -0.2 94 94 WNW 8 13 30.08 1019 10 16.0934 0 0
7:35 am 07:35 Sunny 33 0.5 31 -0.3 94 94 NW 8 13 30.08 1019 10 16.0934 0 0
7:55 am 07:55 Sunny 33 0.6 31 -0.3 94 94 NW 7 11 30.09 1019 10 16.0934 0 0
8:15 am 08:15 Sunny 34 1.2 32 0 92 92 WNW 7 11 30.1 1019 10 16.0934 0 0
8:35 am 08:35 Sunny 35 1.7 32 0.1 89 89 WNW 7 11 30.1 1019 10 16.0934 0 0
8:55 am 08:55 Sunny 37 2.5 33 0.6 87 87 WNW 10 17 30.1 1019 10 16.0934 0 0
9:15 am 09:15 Sunny 38 3.5 34 1.2 85 85 WNW 9 15 30.1 1019 10 16.0934 0 0
9:35 am 09:35 Sunny 40 4.7 34 1.2 78 78 WNW 15 24 30.09 1019 10 16.0934 0 0
9:55 am 09:55 Sunny 42 5.5 35 1.7 77 77 WNW 13 20 30.09 1019 10 16.0934 0 0
10:15 am 10:15 Sunny 44 6.5 36 2.1 74 74 WNW 16 26 30.08 1019 10 16.0934 0 0
10:35 am 10:35 Sunny 46 7.9 37 2.8 70 70 WNW 15 24 30.08 1019 10 16.0934 0 0
10:55 am 10:55 Sunny 49 9.4 39 3.9 69 69 WNW 15 24 30.07 1018 10 16.0934 0 0
11:15 am 11:15 Sunny 51 10.3 38 3.2 62 62 WNW 15 24 30.07 1018 10 16.0934 0 0
11:35 am 11:35 Sunny 52 11 38 3.6 61 61 WNW 15 24 30.06 1018 10 16.0934 0 0
11:55 am 11:55 Sunny 53 11.9 40 4.3 60 60 WNW 14 22 30.06 1018 10 16.0934 0 0
12:15 pm 12:15 Sunny 55 12.9 37 2.5 50 50 WNW 15 24 30.05 1018 10 16.0934 0 0
12:35 pm 12:35 Sunny 56 13.3 36 2.1 47 47 W 14 22 30.05 1018 10 16.0934 0 0
12:55 pm 12:55 Sunny 56 13.6 33 0.6 41 41 WNW 8 13 30.04 1017 10 16.0934 0 0
1:15 pm 13:15 Sunny 57 13.9 33 0.8 41 41 W 16 26 30.04 1017 10 16.0934 0 0
1:35 pm 13:35 Partly Cloudy 57 13.8 34 1.2 43 43 W 13 20 30.04 1017 10 16.0934 0 0
1:55 pm 13:55 Mostly Cloudy 57 14 35 1.7 44 44 NW 10 17 30.03 1017 10 16.0934 0 0
2:15 pm 14:15 Partly Cloudy 58 14.3 33 0.3 39 39 W 8 13 30.02 1017 10 16.0934 0 0
2:35 pm 14:35 Mostly Cloudy 58 14.3 33 0.7 40 40 NW 7 11 30.02 1017 10 16.0934 0 0
2:55 pm 14:55 Partly Cloudy 57 13.9 33 0.3 40 40 WNW 7 11 30.03 1017 10 16.0934 0 0
3:15 pm 15:15 Sunny 59 14.8 33 0.8 39 39 W 10 17 30.02 1017 10 16.0934 0 0
3:35 pm 15:35 Sunny 59 15.2 33 0.7 38 38 WNW 8 13 30.01 1016 10 16.0934 0 0
3:55 pm 15:55 Sunny 60 15.3 34 0.9 38 38 Calm 30 1016 10 16.0934 0 0
4:15 pm 16:15 Partly Cloudy 60 15.4 32 0 35 35 NW 10 17 30 1016 10 16.0934 0 0
4:35 pm 16:35 Partly Cloudy 60 15.6 32 -0.1 34 34 WNW 8 13 30 1016 10 16.0934 0 0
4:55 pm 16:55 Partly Cloudy 61 16 32 0.1 34 34 Calm 30 1016 10 16.0934 0 0
5:15 pm 17:15 Partly Cloudy 61 16.1 31 -0.4 33 33 WSW 3 6 30 1016 10 16.0934 0 0
5:35 pm 17:35 Sunny 61 16 32 -0.1 34 34 W 9 15 30 1016 10 16.0934 0 0
5:55 pm 17:55 Sunny 61 16.1 33 0.3 34 34 W 6 9 29.99 1015 10 16.0934 0 0
6:15 pm 18:15 Sunny 60 15.7 31 -0.7 33 33 W 3 6 30 1016 10 16.0934 0 0
6:35 pm 18:35 Sunny 60 15.8 31 -0.3 34 34 W 7 11 30 1016 10 16.0934 0 0
6:55 pm 18:55 Sunny 60 15.7 32 -0.2 34 34 SW 3 6 30 1016 10 16.0934 0 0
7:15 pm 19:15 Sunny 58 14.5 32 0.1 38 38 Calm 30.02 1017 10 16.0934 0 0
7:35 pm 19:35 Sunny 58 14.4 31 -0.7 36 36 Calm 30.02 1017 10 16.0934 0 0
7:55 pm 19:55 Sunny 56 13.4 32 0.2 41 41 Calm 30.03 1017 10 16.0934 0 0
8:15 pm 20:15 Clear 53 11.6 34 0.9 48 48 Calm 30.06 1018 10 16.0934 0 0
8:35 pm 20:35 Clear 53 11.4 33 0.8 48 48 Calm 30.06 1018 10 16.0934 0 0
8:55 pm 20:55 Clear 51 10.3 35 1.7 56 56 S 3 6 30.07 1018 10 16.0934 0 0
9:15 pm 21:15 Clear 47 8.6 35 1.9 63 63 SSE 5 7 30.09 1019 10 16.0934 0 0
9:35 pm 21:35 Clear 46 7.8 34 1.1 63 63 SE 3 6 30.1 1019 10 16.0934 0 0
9:55 pm 21:55 Clear 45 7.3 34 1.1 65 65 SSE 5 7 30.12 1020 10 16.0934 0 0
10:15 pm 22:15 Clear 42 5.3 36 2.3 81 81 Calm 30.14 1020 10 16.0934 0 0
10:35 pm 22:35 Clear 41 5.1 35 1.7 79 79 Calm 30.15 1021 10 16.0934 0 0
10:55 pm 22:55 Mostly Cloudy 41 5 36 2 81 81 Calm 30.15 1021 10 16.0934 0 0
11:15 pm 23:15 Cloudy 41 5.1 36 2.1 81 81 ESE 3 6 30.15 1021 10 16.0934 0 0
11:35 pm 23:35 Cloudy 42 5.5 36 2 78 78 Calm 30.14 1021 10 16.0934 0 0
11:55 pm 23:55 Mostly Cloudy 40 4.6 37 2.5 86 86 Calm 30.15 1021 10 16.0934 0 0

Powered by AerisWeather